Location: Nitra
(48.3167°N, 18.0833°E)
Time: 16:45:00
(UTC+02:00)

STARLINK-1738 - Pass Details

Date: 24 September 2020
Orbit: 378 x 380 km, 53.0° (Epoch: 24 October)

Event Time Altitude Azimuth Distance (km) Brightness Sun altitude
Exits shadow 03:33:22 13° 57° (ENE) 1,246 6.3 -29.4°
Drops below altitude 10° 03:33:47 10° 60° (ENE) 1,404 6.6 -29.3°
Sets 03:36:00 0° 69° (ENE) 2,288 7.9 -29.0°
